Résultat compétition

ESF MEGEVE : Flèche du 08/01/2010   picture_as_pdf

 Epreuve antérieure au 1er Décembre 2018, ne comptant plus pour le classement SkiOpen.

Ouvreur Handicap Temps Réalisé Temps Base
MORAND CEDRIC 4.00 58.96 56.69
Médaille Or Vermeil Argent Bronze Fléchette
Pourcentage 15.00% 28.00% 40.00% 45.00% 50.00%
Temps 1:06.32 1:13.69 1:22.20 1:30.70 1:33.54
Clt.  expand_more Identité Code S. An Cat Temps Pts Médaille PDF Cor.
1 MARTIN JEAN MARIE ESF0741606543 M 1960 MA3 1:03.99 12.87 Or picture_as_pdf edit
2 BACHY ALEXANDRE ESF0241602407 M 1995 MIN 1:05.76 16.00 Or picture_as_pdf edit
3 NEYROUD DARIA FFS2617783 F 1987 SEN 1:07.14 18.43 Vermeil picture_as_pdf edit
4 WAVRE FREDERIC FFS2642987 M 1997 BEN 1:07.37 18.84 Vermeil picture_as_pdf edit
5 RIVA EDOUARD ESF0741602122 M 1992 JUN 1:08.50 20.83 Vermeil picture_as_pdf edit
6 WAVRE GAELLE FFS2635823 F 1996 MIN 1:08.71 21.20 Vermeil picture_as_pdf edit
7 MANET CONRAD ESF0641603054 M 1998 BEN 1:08.95 21.62 Vermeil picture_as_pdf edit
8 CHATELAIN XAVIER ESF0241602424 M 1997 BEN 1:10.03 23.53 Vermeil picture_as_pdf edit
9 NAZZARIO MATTEO ESF1041600354 M 1973 MA1 1:10.41 24.20 Vermeil picture_as_pdf edit
10 NAEF ADRIEN ESF0241602857 M 1994 CAD 1:10.82 24.92 Vermeil picture_as_pdf edit
11 CASSART MICKAEL ESF1041620002 M 1991 JUN 1:11.07 25.36 Vermeil picture_as_pdf edit
12 MILHAUD LOUIS ESF0241602755 M 1995 MIN 1:11.49 26.10 Vermeil picture_as_pdf edit
13 LACOSTE MAXIME ESF0641603800 M 1997 BEN 1:11.85 26.74 Vermeil picture_as_pdf edit
14 CORRADINO MARGUERITA ESF0641601374 F 1999 POU 1:12.94 28.66 Vermeil picture_as_pdf edit
15 CORRADINO AGNESE ESF0641601373 F 1997 BEN 1:13.07 28.89 Vermeil picture_as_pdf edit
16 VERGNE SALOME ESF0841600718 F 1997 BEN 1:13.32 29.33 Vermeil picture_as_pdf edit
17 HENKEL KIAN ESF0641601457 M 1996 MIN 1:13.95 30.44 Argent picture_as_pdf edit
18 EVANS INDIGO ESF0841600477 F 1995 MIN 1:14.08 30.67 Argent picture_as_pdf edit
19 KING LUCAS ESF0841600474 M 1995 MIN 1:14.46 31.34 Argent picture_as_pdf edit
20 LACOSTE ANTOINE ESF0941601309 M 1997 BEN 1:14.58 31.55 Argent picture_as_pdf edit
21 OTTO LOUIS ESF0441600714 M 1997 BEN 1:15.31 32.84 Argent picture_as_pdf edit
22 BIANCHI EDOARDO ESF0741602255 M 1998 BEN 1:15.80 33.70 Argent picture_as_pdf edit
23 PIACENTINE FRANCESCO ESF0841600362 M 1999 POU 1:16.20 34.41 Argent picture_as_pdf edit
24 LACOSTE VICTORIA ESF0441600516 F 1993 CAD 1:16.87 35.59 Argent picture_as_pdf edit
25 LOB AMELIE ESF0941600940 F 2000 POU 1:16.89 35.63 Argent picture_as_pdf edit
26 RIVA LOUISE ESF0741602123 F 1995 MIN 1:17.09 35.98 Argent picture_as_pdf edit
27 BACHY PASCAL ESF1041600353 M 1965 MA2 1:17.35 36.44 Argent picture_as_pdf edit
28 TASSI GIUDITTA ESF0941600613 F 1998 BEN 1:17.39 36.51 Argent picture_as_pdf edit
29 BARENGHI NICOLO ESF0941600085 M 1999 POU 1:17.42 36.56 Argent picture_as_pdf edit
30 FEIGE GREG ESF0841600560 M 2000 POU 1:18.21 37.96 Argent picture_as_pdf edit
31 NAEF FLORIANE ESF0941601326 F 1996 MIN 1:18.50 38.47 Argent picture_as_pdf edit
32 LACOSTE WILLIAM ESF0641607189 M 1997 BEN 1:18.81 39.01 Argent picture_as_pdf edit
33 BOUCRAUT THOMAS ESF0941602402 M 1999 POU 1:19.33 39.93 Argent picture_as_pdf edit
34 LOB GUILLAUME ESF0841600144 M 1998 BEN 1:19.89 40.92 Argent picture_as_pdf edit
35 MULLEN JENNA ESF0841601751 F 1998 BEN 1:21.08 43.02 Argent picture_as_pdf edit
36 MAGGIO ISABELLA ESF1041600316 F 1998 BEN 1:21.47 43.71 Argent picture_as_pdf edit
37 TONNBY MAY-LOAN ESF0741601046 F 1998 BEN 1:21.71 44.13 Argent picture_as_pdf edit
38 MILHAUD MATHILDE ESF0441601659 F 1998 BEN 1:22.26 45.10 Bronze picture_as_pdf edit
39 RONCARI NICOLAS ESF0641603041 M 1999 POU 1:22.63 45.75 Bronze picture_as_pdf edit
40 DE GASPARD LUCA ESF0941601453 M 2000 POU 1:22.81 46.07 Bronze picture_as_pdf edit
41 MANET ALEXANDRE ESF0741602854 M 1998 BEN 1:22.90 46.23 Bronze picture_as_pdf edit
42 DE KONING ROSALINE ESF1041600333 F 1999 POU 1:23.15 46.67 Bronze picture_as_pdf edit
43 KING DOUGLAS ESF0241602693 M 1967 MA2 1:24.26 48.63 Bronze picture_as_pdf edit
44 HATZINIKOLIS ALEXANDRE ESF0741607506 M 2000 POU 1:24.32 48.73 Bronze picture_as_pdf edit
45 RICCARDI CAMILLA ESF1041600325 F 1999 POU 1:24.35 48.79 Bronze picture_as_pdf edit
46 SHTERNBERG DAVID ESF1041600351 M 1998 BEN 1:25.41 50.66 Bronze picture_as_pdf edit
47 BRAHA BENJAMIN ESF0741601551 M 2000 POU 1:26.24 52.12 Bronze picture_as_pdf edit
48 GIACHERO JOSEPHINE ESF0941600654 F 1999 POU 1:26.27 52.17 Bronze picture_as_pdf edit
49 ALVIGINI DELPHINE ESF1041600058 F 2008 POU 1:26.36 52.33 Bronze picture_as_pdf edit
50 PONTAPLEV ARTEM ESF1041600311 M 2000 POU 1:27.57 54.47 Bronze picture_as_pdf edit
51 PETROVA SOPHIA ESF0941602454 F 1999 POU 1:28.60 56.28 Bronze picture_as_pdf edit
52 DEBS GABRIEL ESF1041600052 M 2000 POU 1:29.35 57.61 Bronze picture_as_pdf edit
53 SIKORSKY ILAN ESF1041600241 M 2001 POU 1:30.03 58.81 Bronze picture_as_pdf edit
54 HENKEL SARI ESF0841600057 F 1998 BEN 1:30.05 58.84 Bronze picture_as_pdf edit
55 PERONI MARIANNA ESF1041600304 F 1996 MIN 1:30.19 59.09 Bronze picture_as_pdf edit
56 RICCARDI MIRANDA ESF1041600326 F 1997 BEN 1:30.45 59.55 Bronze picture_as_pdf edit
57 CASSANO LUDOVICA ESF0941600549 F 1998 BEN 1:30.98 60.48 Fléchette picture_as_pdf edit
58 TONNBY EMILIE ESF0941600259 F 2000 POU 1:31.16 60.80 Fléchette picture_as_pdf edit
59 VOLLENWEIDER THOMAS ESF0741606172 M 1996 MIN 1:31.32 61.08 Fléchette picture_as_pdf edit
60 PETROV EMIL ESF0941602453 M 2001 POU 1:32.87 63.82 Fléchette picture_as_pdf edit
61 PUPET CAMILLE ESF0941601131 F 2000 POU 1:35.84 69.05 picture_as_pdf edit
62 MULLEN JAMES ESF0941602416 M 2001 POU 1:37.55 72.07 picture_as_pdf edit